"Time","Temp","Dewpoint","Humidity","Pressure","Direction","Speed","Gust","Precip","PrecipRate"
"00:04:58","69.1","50.7","52","29.81","183","0","0","0.00","0.00"
"00:09:59","69","51.2","53.1","29.81","155","1","3.5","0.00","0.00"
"00:14:58","68.8","51","53","29.81","175","1.3","5","0.00","0.00"
"00:19:59","68.8","51.3","53.6","29.81","183","0.8","3.5","0.00","0.00"
"00:24:59","68.6","51.5","54.4","29.81","183","1.1","3.5","0.00","0.00"
"00:29:56","68.4","51.6","54.9","29.81","184","0.5","3.5","0.00","0.00"
"00:34:57","68.4","51.5","54.8","29.80","184","0.9","3","0.00","0.00"
"00:39:58","68.3","51.9","55.8","29.80","184","0.6","2.3","0.00","0.00"
"00:44:59","68.1","52.5","57.2","29.80","184","0.4","1.2","0.00","0.00"
"00:49:56","67.9","52.3","57.4","29.80","184","0.1","1.2","0.00","0.00"
"00:54:56","67.6","52.5","58.2","29.80","184","0","0","0.00","0.00"
"00:59:57","67.4","52.3","58.4","29.80","184","0","0","0.00","0.00"
"01:04:57","67.1","52.8","60.3","29.80","184","0","0","0.00","0.00"
"01:09:57","66.7","52.9","61.2","29.80","184","0.4","2.3","0.00","0.00"
"01:14:56","66.3","52.9","62","29.80","184","0.4","2","0.00","0.00"
"01:19:58","65.9","53","63.1","29.80","184","0","1.2","0.00","0.00"
"01:24:59","65.6","53.5","65","29.80","184","0","1","0.00","0.00"
"01:29:57","65.3","53.1","64.7","29.80","184","0","0","0.00","0.00"
"01:34:58","65","52.9","64.9","29.80","184","0","0","0.00","0.00"
"01:39:57","64.8","53.1","65.7","29.80","184","0.3","1.2","0.00","0.00"
"01:44:57","64.7","53.8","67.9","29.81","184","0.4","1.2","0.00","0.00"
"01:49:58","64.4","53.8","68.3","29.81","184","0","0","0.00","0.00"
"01:54:58","64.2","54.2","69.9","29.81","184","0","0","0.00","0.00"
"01:59:59","64","53.8","69.5","29.81","184","0.5","1.2","0.00","0.00"
"02:04:59","63.8","53.1","68.2","29.80","184","0.3","1.2","0.00","0.00"
"02:09:56","63.7","53","68.4","29.80","184","0.2","1.2","0.00","0.00"
"02:14:55","63.6","53.3","69.3","29.80","184","0.2","1.2","0.00","0.00"
"02:19:56","63.4","54.2","72.2","29.80","184","1.1","2.3","0.00","0.00"
"02:24:56","63.1","54.3","73","29.80","184","0.2","2.3","0.00","0.00"
"02:29:57","62.9","53.7","72.1","29.80","184","0.5","2","0.00","0.00"
"02:34:58","63","53.7","71.8","29.80","184","0.6","2.3","0.00","0.00"
"02:39:57","63","54.1","72.8","29.80","184","0.5","2.3","0.00","0.00"
"02:44:57","62.8","54.2","73.6","29.80","184","0.2","1.2","0.00","0.00"
"02:49:58","62.4","54.4","74.9","29.80","184","0","1.2","0.00","0.00"
"02:54:59","62.2","54.1","74.7","29.80","184","0.5","2.3","0.00","0.00"
"02:59:59","62.2","54.4","75.9","29.81","184","1","2.3","0.00","0.00"
"03:04:58","62.1","54.5","76.2","29.81","184","0.2","2.3","0.00","0.00"
"03:09:59","62","54.6","76.6","29.81","184","0.5","2.3","0.00","0.00"
"03:14:57","62","54.8","77.2","29.81","184","1.5","2.3","0.00","0.00"
"03:19:57","61.9","55","78","29.81","184","1.1","2.3","0.00","0.00"
"03:24:57","61.8","54.9","78","29.81","184","0.5","1.2","0.00","0.00"
"03:29:56","61.8","54.7","77.7","29.82","184","0","1.2","0.00","0.00"
"03:34:59","61.7","54.9","78.2","29.82","184","0","0","0.00","0.00"
"03:39:56","61.6","55.4","80","29.82","184","0.1","2","0.00","0.00"
"03:44:58","61.5","55","79.3","29.82","206","1.1","3.5","0.00","0.00"
"03:49:59","61.6","54.6","77.7","29.82","329","1.8","3.5","0.00","0.00"
"03:54:59","62","54.7","77","29.82","307","1.7","4","0.00","0.00"
"03:59:59","62.5","54.7","75.8","29.83","257","1","3.5","0.00","0.00"
"04:04:59","62.8","55.5","77","29.83","257","1.5","3.5","0.00","0.00"
"04:09:59","62.8","55.4","76.8","29.83","257","0.5","2.3","0.00","0.00"
"04:14:57","63.1","54.2","73","29.83","258","0.9","4","0.00","0.00"
"04:19:58","64.1","53.9","69.5","29.83","244","0.8","3.5","0.00","0.00"
"04:24:58","65.1","54","67.2","29.83","233","1.9","4","0.00","0.00"
"04:29:59","66.2","53.6","63.9","29.85","213","2.7","4","0.00","0.00"
"04:34:58","67","54","63","29.85","239","1.3","5","0.00","0.00"
"04:39:56","67.5","53.9","61.8","29.85","264","2.2","6","0.00","0.00"
"04:44:56","67.8","54.4","62.2","29.86","243","3.4","9.2","0.00","0.00"
"04:49:59","67.7","54.4","62.4","29.86","235","3.5","6","0.00","0.00"
"04:54:59","67.6","54.5","62.7","29.86","241","3.3","6","0.00","0.00"
"04:59:59","67.5","54.8","63.8","29.86","242","3.9","8.1","0.00","0.00"
"05:04:58","67.4","54.5","63.4","29.86","258","3.2","8.1","0.00","0.00"
"05:09:59","67.4","54.5","63.4","29.86","264","1.9","4","0.00","0.00"
"05:14:56","67.1","55.2","65.5","29.86","276","1.9","3.5","0.00","0.00"
"05:19:56","66.7","55.8","68.2","29.86","282","1.2","4","0.00","0.00"
"05:24:56","66","56.2","70.8","29.86","332","1.8","4","0.01","0.01"
"05:29:56","65.3","56.9","74.2","29.86","335","0.4","2.3","0.01","0.01"
"05:34:56","64.5","56.8","75.8","29.84","336","0.3","1.2","0.01","0.01"
"05:39:57","63.7","57.5","80.3","29.84","336","0.7","2.3","0.01","0.01"
"05:44:58","62.6","57.6","83.7","29.86","336","1.2","2.3","0.01","0.01"
"05:49:59","61.9","57.7","86.1","29.86","336","1","2.3","0.01","0.01"
"05:54:55","61.4","57.5","87.1","29.86","336","0.1","1.2","0.01","0.01"
"05:59:57","61","57.3","87.7","29.88","336","0","1","0.01","0.01"
"06:04:57","60.8","57.2","88","29.88","336","0.1","1.2","0.01","0.01"
"06:09:59","60.7","57.1","88.3","29.88","336","0","1.2","0.01","0.01"
"06:14:58","60.5","57.3","89.2","29.88","337","0.6","2.3","0.01","0.01"
"06:19:56","60.4","57.5","90","29.87","338","0.4","1.2","0.01","0.01"
"06:24:56","60.4","57.5","90","29.87","338","0.4","1.2","0.01","0.01"
"06:29:58","60.3","57.6","90.6","29.88","338","0.1","1.2","0.01","0.00"
"06:34:59","60.2","57.6","90.9","29.88","338","0.2","1.2","0.01","0.00"
"06:39:58","60.1","57.7","91.8","29.88","338","0.1","1.2","0.01","0.00"
"06:44:59","60","57.7","92","29.88","338","0","0","0.01","0.00"
"06:49:59","60","57.7","92","29.88","338","0","1.2","0.01","0.00"
"06:54:59","60","57.9","92.7","29.88","338","0","1.2","0.01","0.00"
"06:59:59","59.9","57.9","93","29.88","338","0.3","2.3","0.01","0.00"
"07:04:59","59.9","57.8","92.6","29.88","338","0.5","2.3","0.01","0.00"
"07:09:56","59.9","57.9","93","29.88","338","0","1.2","0.01","0.00"
"07:14:59","59.9","57.9","93","29.88","338","0.2","1.2","0.01","0.00"
"07:19:59","59.8","57.8","93","29.88","338","0.4","4","0.01","0.00"
"07:24:59","59.8","57.8","93","29.88","338","0.2","1.2","0.01","0.00"
"07:29:58","59.8","57.8","93","29.89","338","0.1","1.2","0.01","0.00"
"07:34:56","59.8","57.8","93","29.89","338","0.3","1.2","0.01","0.00"
"07:39:57","59.8","57.9","93.3","29.89","338","0","1.2","0.01","0.00"
"07:44:58","59.9","57.9","93.1","29.89","338","0.5","2.3","0.01","0.00"
"07:49:59","59.9","57.9","93","29.88","338","0.3","2.3","0.01","0.00"
"07:54:59","59.9","58","93.4","29.88","338","0","1","0.01","0.00"
"07:59:58","59.9","58.2","93.9","29.89","338","0","1","0.01","0.00"
"08:04:57","60","58","93","29.89","338","0","1.2","0.01","0.00"
"08:09:58","60","58.2","93.6","29.89","336","0.8","3.5","0.01","0.00"
"08:14:59","60.1","58.1","93","29.90","336","0.5","2.3","0.01","0.00"
"08:19:58","60.1","58.2","93.3","29.90","336","0.6","2.3","0.01","0.00"
"08:24:58","60.1","58.2","93.3","29.90","336","0.5","2.3","0.01","0.00"
"08:29:58","60.1","58.1","93","29.90","336","0.3","2.3","0.01","0.00"
"08:34:58","60.1","58.1","93","29.89","336","0.3","2.3","0.01","0.00"
"08:39:56","60.1","58.1","93","29.89","336","0.2","2","0.01","0.00"
"08:44:56","60.2","58.2","93","29.89","336","0.2","2.3","0.01","0.00"
"08:49:57","60.3","58.3","93","29.89","336","0","0","0.01","0.00"
"08:54:58","60.4","58.4","93","29.89","336","0","0","0.01","0.00"
"08:59:58","60.4","58.4","93","29.89","336","0","0","0.01","0.00"
"09:04:57","60.5","58.6","93.2","29.89","201","1.1","5","0.01","0.00"
"09:09:58","60.7","58.9","93.6","29.89","188","1.7","4.6","0.01","0.00"
"09:14:56","60.7","58.7","93","29.90","185","1.1","3.5","0.01","0.00"
"09:19:56","60.6","58.5","92.5","29.90","182","1.1","3.5","0.01","0.00"
"09:24:57","60.6","58.6","92.8","29.90","182","0.6","2.3","0.01","0.00"
"09:29:57","60.7","58.4","92.1","29.90","181","0.6","3.5","0.01","0.00"
"09:34:56","60.8","58.5","92","29.89","179","0.3","2.3","0.01","0.00"
"09:39:58","61","58.6","91.8","29.89","179","0.2","1.2","0.01","0.00"
"09:44:58","61.1","58.9","92.2","29.89","179","0.1","1.2","0.01","0.00"
"09:49:59","61.4","59.2","92.2","29.88","180","0.1","1.2","0.01","0.00"
"09:54:56","61.7","59.5","92.3","29.88","180","0.1","1.2","0.01","0.00"
"09:59:56","62","59.4","91.3","29.88","179","0.2","1.2","0.01","0.00"
"10:04:59","62.3","59.6","91","29.88","166","1.3","3.5","0.01","0.00"
"10:09:59","62.5","59.4","89.5","29.88","161","1.2","3.5","0.01","0.00"
"10:14:56","62.7","59.3","88.5","29.88","142","1.7","3.5","0.01","0.00"
"10:19:59","63.1","59.8","88.9","29.87","128","1.3","3.5","0.01","0.00"
"10:24:59","63.6","60.2","88.5","29.87","115","1.6","4","0.01","0.00"
"10:29:59","64","60.1","87","29.87","112","1.4","4","0.01","0.00"
"10:34:59","64.4","60.5","87.1","29.87","155","1.5","4","0.01","0.00"
"10:39:57","65.1","60.7","85.5","29.87","168","1.6","4","0.01","0.00"
"10:44:56","65.6","60.8","84.5","29.87","171","2","5","0.01","0.00"
"10:49:56","66.3","60.5","81.8","29.86","119","2.6","5","0.01","0.00"
"10:54:55","66.8","61","81.7","29.86","147","2.1","4","0.01","0.00"
"10:59:59","67.2","61.4","81.7","29.86","150","2","5","0.01","0.00"
"11:04:58","67.6","61.8","81.6","29.86","135","1.6","4","0.01","0.00"
"11:09:58","68.1","61.7","80.1","29.86","127","1.6","5","0.01","0.00"
"11:14:56","68.2","61.6","79.5","29.86","133","1.9","3.5","0.01","0.00"
"11:19:56","68.2","61.5","79.1","29.85","135","2.4","5","0.01","0.00"
"11:24:59","68.2","61","77.8","29.85","154","3","5","0.01","0.00"
"11:29:56","68.2","61.1","78.2","29.85","115","2.4","5","0.01","0.00"
"11:34:57","68.3","61.3","78.5","29.85","122","1.9","5","0.01","0.00"
"11:39:58","68.6","61.5","78","29.85","117","2.3","6","0.01","0.00"
"11:44:58","69","62","78.3","29.85","171","2","6","0.01","0.00"
"11:49:57","69.6","61.8","76.4","29.84","167","2.9","5.8","0.01","0.00"
"11:54:56","69.9","61.5","74.9","29.84","137","4","9.2","0.01","0.00"
"11:59:59","69.9","61.4","74.5","29.84","162","3.2","6","0.01","0.00"
"12:04:58","70","61.9","75.4","29.83","172","2.6","7","0.01","0.00"
"12:09:58","70.4","62.4","76","29.83","162","2.7","9.2","0.01","0.00"
"12:14:59","70.6","62.4","75.5","29.83","149","3","11","0.01","0.00"
"12:19:56","70.4","62.6","76.4","29.82","179","4.3","11.5","0.01","0.00"
"12:24:58","70.1","62.7","77.4","29.82","171","3.7","10.4","0.01","0.00"
"12:29:56","69.9","62.9","78.6","29.82","187","4.4","9.2","0.01","0.00"
"12:34:58","70","63.4","79.8","29.82","192","4.2","9","0.01","0.00"
"12:39:59","70.3","63.8","79.8","29.82","190","4.9","9.2","0.01","0.00"
"12:44:57","70.6","64.3","80.7","29.82","144","3.1","10","0.01","0.00"
"12:49:58","71.1","64.5","79.8","29.81","181","5.8","11.5","0.01","0.00"
"12:54:57","71.5","65.1","80.2","29.81","192","4.2","8.1","0.01","0.00"
"12:59:59","71.9","65.1","79.1","29.81","161","4.9","10.4","0.01","0.00"
"13:04:57","72.2","65.1","78.3","29.80","182","4.9","10.4","0.01","0.00"
"13:09:56","72.3","64.9","77.3","29.80","190","5.6","12","0.01","0.00"
"13:14:57","72","64.8","78","29.80","189","4.5","11.5","0.01","0.00"
"13:19:56","71.7","64.7","78.7","29.80","203","4.9","11.5","0.01","0.00"
"13:24:58","71.3","64.5","79.4","29.80","186","4.3","9.2","0.01","0.00"
"13:29:57","71.4","65.4","81.2","29.80","186","2.6","9.2","0.01","0.00"
"13:34:57","72","66","81.4","29.79","191","2.4","4","0.01","0.00"
"13:39:56","72.6","66.4","80.9","29.79","187","3.3","7","0.01","0.00"
"13:44:59","72.8","66","79.3","29.79","153","2.7","6","0.01","0.00"
"13:49:57","72.6","65.5","78.5","29.79","173","4","13","0.01","0.00"
"13:54:59","72.2","65.2","78.5","29.79","176","4.5","11.5","0.01","0.00"
"13:59:57","71.9","65.3","79.8","29.79","180","3.1","10","0.01","0.00"
"14:04:59","71.7","65.3","80.2","29.79","194","3.4","10.4","0.01","0.00"
"14:09:59","71.6","65.4","80.6","29.79","189","4","9.2","0.01","0.00"
"14:14:56","71.5","65.5","81.2","29.79","159","3.3","12","0.01","0.00"
"14:19:58","71.7","65.8","81.5","29.78","170","3.1","11.5","0.01","0.00"
"14:24:56","71.9","65.9","81.3","29.78","163","2.5","9.2","0.01","0.00"
"14:29:58","72","65.8","80.8","29.78","191","5.1","13","0.01","0.00"
"14:34:57","72.1","66.1","81.4","29.77","194","3.8","10.4","0.01","0.00"
"14:39:56","72.1","66.3","82","29.77","179","2.8","6","0.01","0.00"
"14:44:58","72.1","66.2","81.7","29.77","186","4","9.2","0.01","0.00"
"14:49:56","72","65.8","81.1","29.76","192","6","14","0.01","0.00"
"14:54:58","71.7","65.7","81.2","29.76","201","6.7","16","0.01","0.00"
"14:59:56","71.7","65.9","82","29.76","198","4.7","14","0.01","0.00"
"15:04:59","71.7","66.2","82.7","29.75","192","3.1","6","0.01","0.00"
"15:09:59","71.7","66","82.2","29.75","191","3.8","11","0.01","0.00"
"15:14:58","71.5","65.9","82.4","29.75","188","6.2","12","0.01","0.00"
"15:19:57","71.4","66.2","83.5","29.74","196","4.1","10.4","0.01","0.00"
"15:24:59","71.5","66.2","83.3","29.74","196","6.4","12","0.01","0.00"
"15:29:56","71.6","66.5","84","29.74","188","4.8","12","0.01","0.00"
"15:34:58","72","67","84.1","29.73","192","3.5","9.2","0.01","0.00"
"15:39:58","72.5","67.3","83.6","29.73","189","3.9","13","0.01","0.00"
"15:44:56","73","67.4","82.7","29.73","190","5","12","0.01","0.00"
"15:49:59","73.2","67.4","82.1","29.72","147","3.6","9.2","0.01","0.00"
"15:54:57","73.3","67.4","81.9","29.72","158","4","8.1","0.01","0.00"
"15:59:58","73.4","67.3","81.3","29.72","165","4.7","10.4","0.01","0.00"
"16:04:56","73.4","67.4","81.7","29.71","197","6.1","14","0.01","0.00"
"16:09:57","73.7","67.8","81.7","29.71","180","5.5","11.5","0.01","0.00"
"16:14:59","74","68","81.5","29.71","192","5","13","0.01","0.00"
"16:19:57","74.5","68.1","80.5","29.71","182","5.3","13","0.01","0.00"
"16:24:59","74.6","68","79.9","29.71","174","5.3","12","0.01","0.00"
"16:29:56","74.3","67.5","79.2","29.71","169","5.4","12","0.01","0.00"
"16:34:58","73.9","67.2","79.7","29.71","191","5.5","14","0.01","0.00"
"16:39:58","73.5","67.3","81.1","29.71","185","4.7","15","0.01","0.00"
"16:44:59","73.3","67.1","81","29.71","174","4.5","10","0.01","0.00"
"16:49:57","73.1","67.3","82","29.70","181","3.9","8","0.01","0.00"
"16:54:59","73","67.2","82.2","29.70","183","3.3","8","0.01","0.00"
"16:59:57","72.9","67.3","82.7","29.71","153","3","7","0.01","0.00"
"17:04:56","73","67.5","82.8","29.71","180","3.4","8.1","0.01","0.00"
"17:09:56","73.1","67.5","82.5","29.71","184","3","6","0.01","0.00"
"17:14:59","73.3","67.5","82","29.71","157","2.5","6","0.01","0.00"
"17:19:57","73.3","67.4","81.8","29.70","193","3.3","7","0.01","0.00"
"17:24:58","73.1","67.3","82","29.70","147","2.2","5","0.01","0.00"
"17:29:56","73.1","67.4","82.4","29.70","160","2.8","7","0.01","0.00"
"17:34:57","73.1","67.3","82","29.70","179","3.7","9","0.01","0.00"
"17:39:56","73.3","67.2","81.2","29.70","183","3.7","10.4","0.01","0.00"
"17:44:58","73.4","67.3","81.2","29.70","178","3.6","9.2","0.01","0.00"
"17:49:59","73.5","67.4","81.1","29.69","179","3.4","9","0.01","0.00"
"17:54:56","73.7","67.4","80.8","29.69","165","3.7","10","0.01","0.00"
"17:59:57","73.8","67.4","80.5","29.69","173","4.6","12","0.01","0.00"
"18:04:58","73.8","67.4","80.6","29.68","164","3.7","7","0.01","0.00"
"18:09:58","73.8","67.5","80.7","29.68","163","3.9","10","0.01","0.00"
"18:14:56","73.9","67.4","80.4","29.68","168","3.5","10.4","0.01","0.00"
"18:19:58","73.9","67.4","80.3","29.68","165","3.2","7","0.01","0.00"
"18:24:56","73.9","67.6","80.7","29.68","164","3.5","11","0.01","0.00"
"18:29:57","73.9","67.5","80.5","29.68","157","3.6","8.1","0.01","0.00"
"18:34:58","73.8","67.6","81","29.67","163","3.2","7","0.01","0.00"
"18:39:58","73.7","67.9","81.9","29.67","164","3","9.2","0.01","0.00"
"18:44:59","73.6","67.8","82","29.67","165","3.7","10.4","0.01","0.00"
"18:49:57","73.5","67.7","82","29.67","180","4.1","16.1","0.01","0.00"
"18:54:59","73.5","67.7","82","29.67","171","3.1","8","0.01","0.00"
"18:59:56","73.4","67.6","82","29.67","188","3.7","10.4","0.01","0.00"
"19:04:58","73.4","67.6","82","29.67","176","3.3","9.2","0.01","0.00"
"19:09:58","73.4","67.5","81.7","29.67","166","3.7","7","0.01","0.00"
"19:14:57","73.4","67.2","81","29.67","172","4.6","10","0.01","0.00"
"19:19:58","73.4","67.2","81.2","29.67","155","2.8","9.2","0.01","0.00"
"19:24:56","73.3","67.1","81","29.67","171","3.5","7","0.01","0.00"
"19:29:57","73.2","67.2","81.5","29.67","174","2.9","9.2","0.01","0.00"
"19:34:59","73.1","67.3","82","29.67","167","3.6","7","0.01","0.00"
"19:39:59","73","67.2","82","29.67","175","2.8","6","0.01","0.00"
"19:44:57","72.8","67","82.1","29.67","168","2.4","5","0.01","0.00"
"19:49:59","72.7","67.2","83","29.67","150","3.1","7","0.01","0.00"
"19:54:58","72.5","67.2","83.6","29.67","171","2","5.8","0.01","0.00"
"19:59:56","72.3","67.2","84","29.67","153","2.3","8","0.01","0.00"
"20:04:59","71.9","67.1","84.9","29.66","168","2.4","8.1","0.01","0.00"
"20:09:59","71.6","67","85.5","29.66","182","2.5","8.1","0.01","0.00"
"20:14:56","71.3","66.9","86","29.66","161","3","6","0.01","0.00"
"20:19:57","71.2","66.8","86","29.66","149","3","7","0.01","0.00"
"20:24:56","71","66.9","86.9","29.66","188","2.6","6","0.01","0.00"
"20:29:59","70.7","66.7","87.2","29.67","189","2.8","6","0.01","0.00"
"20:34:57","70.5","66.8","88","29.67","182","2","5.8","0.01","0.00"
"20:39:58","70.2","66.5","88","29.67","176","2.3","6","0.01","0.00"
"20:44:58","70","66.5","88.8","29.67","179","2.8","5.8","0.01","0.00"
"20:49:56","69.8","66.3","89","29.67","187","1.9","5","0.01","0.00"
"20:54:56","69.6","66.4","89.7","29.67","161","1.6","5","0.01","0.00"
"20:59:59","69.4","66.3","90","29.67","159","1.6","4","0.01","0.00"
"21:04:53","69.3","66.2","90","29.67","169","2.2","6","0.01","0.00"
"21:09:58","69.1","66","90","29.67","186","1.8","5","0.01","0.00"
"21:14:59","69","65.9","90","29.68","186","2.3","6","0.01","0.00"
"21:19:57","68.8","65.7","90","29.68","169","1.9","6","0.01","0.00"
"21:24:56","68.7","65.6","90","29.68","182","2.4","6","0.01","0.00"
"21:29:56","68.6","65.5","90","29.68","188","1.7","5","0.01","0.00"
"21:34:58","68.4","65.7","91","29.68","199","2.2","5","0.01","0.00"
"21:39:59","68.2","65.5","91","29.68","205","1.7","3.5","0.01","0.00"
"21:44:57","68.1","65.4","91","29.68","212","1.4","3","0.01","0.00"
"21:49:57","68","65.3","91","29.68","209","1.7","4","0.01","0.00"
"21:54:59","67.9","65.4","91.8","29.68","192","1.7","4","0.01","0.00"
"21:59:58","67.9","65.5","92","29.69","191","1.5","3","0.01","0.00"
"22:04:58","67.9","65.5","92","29.69","192","1.8","3.5","0.01","0.00"
"22:09:58","67.9","65.5","92","29.69","195","1.8","4","0.01","0.00"
"22:14:59","67.9","65.5","92","29.70","205","2.3","4","0.01","0.00"
"22:19:57","68","65.6","92","29.70","205","1.2","3","0.01","0.00"
"22:24:56","67.9","65.5","92","29.70","204","1.2","3.5","0.01","0.00"
"22:29:58","67.8","65.4","92","29.70","202","1.4","4","0.01","0.00"
"22:34:59","67.8","65.3","92","29.70","193","1.8","4","0.01","0.00"
"22:39:56","67.7","65.3","92","29.70","188","1.1","3","0.01","0.00"
"22:44:57","67.6","65.4","92.7","29.70","188","0.4","3","0.01","0.00"
"22:49:56","67.5","65.4","93","29.70","188","0.4","3.5","0.01","0.00"
"22:54:58","67.4","65.3","93","29.70","181","1.1","3.5","0.01","0.00"
"22:59:56","67.4","65.3","93","29.70","176","0.7","2.3","0.01","0.00"
"23:04:59","67.4","65.3","93","29.70","176","0.9","3.5","0.01","0.00"
"23:09:56","67.3","65.2","93","29.70","174","0.5","2.3","0.01","0.00"
"23:14:56","67.2","65.1","93","29.70","173","0.6","2.3","0.01","0.00"
"23:19:58","67.2","65.1","93","29.70","174","0.3","2.3","0.01","0.00"
"23:24:56","67.1","65","93","29.70","174","0.9","3.5","0.01","0.00"
"23:29:59","67","65.2","93.9","29.70","175","1","4","0.01","0.00"
"23:34:57","66.9","65.1","94","29.70","189","1.8","4","0.01","0.00"
"23:39:57","66.9","65.1","94","29.70","200","2.2","5","0.01","0.00"
"23:44:59","67","65.2","94","29.70","203","2.1","4","0.01","0.00"
"23:49:56","67","65.2","94","29.69","190","2.4","7","0.01","0.00"
"23:54:58","67","65.2","94","29.69","194","2.9","10.4","0.01","0.00"
"23:59:59","67","65.2","94","29.69","187","2.7","7","0.01","0.00"
